Flag for Finland Weather past 2 weeks in Helsinki, Finland

Now
41 °F

Drizzle. Partly sunny.


Feels Like: 37 °F
Forecast: 38 / 47 °F
Wind: 6 mph from East

Location: Helsinki Malmi Airport

Current Time: Apr 26, 2015 at 3:09:03 PM

Latest Report: Apr 26, 2015 at 2:20 PM


Visibility: N/A

Pressure: 29.56 "Hg

Humidity: 100%

Dew point: 41 °F

Location of HelsinkiLocation

Historic Weather in Helsinki — Graph

°F

Helsinki temperature yesterday

Maximum temperature yesterday: 50 °F (at 3:20 PM)
Minimum temperature yesterday: 27 °F (at 5:50 AM)
Average temperature yesterday: 42 °F

Past Weeks' High & Low Weather Summary

 TemperatureHumidityPressure
High57 °F (Apr 11, 5:20 PM)100% (Apr 12, 3:20 PM)30.09 "Hg (Apr 12, 3:20 PM)
Low27 °F (Apr 15, 6:50 AM)32% (Apr 23, 4:50 PM)29.21 "Hg (Apr 16, 3:50 AM)
Average42 °F65%29.70 "Hg
* Reported Apr 11 1:20 PM — Apr 26 1:50 PM, Helsinki, Weather by CustomWeather, © 2015

Note: Actual official high and low records may vary slightly from our data, if they occured in-between our weather recording intervals... More about our weather records

Advertising

Helsinki weather history for previous 24 hours

 ConditionsComfort  
Time TempWeatherWind HumidityBarometerVisibility
1:50 PM
Sun, Apr 26
41 °FLight rain. Partly sunny.9 mph100%29.56 "Hg4 mi
1:20 PM41 °FLight rain. Partly sunny.9 mph100%29.56 "HgN/A
12:50 PM41 °FLight rain. Partly sunny.10 mph93%29.56 "HgN/A
12:20 PM41 °FLight rain. Partly sunny.12 mph93%29.59 "HgN/A
11:50 AM39 °FLight rain. Partly sunny.8 mph100%29.59 "HgN/A
11:20 AM39 °FLight rain. Low clouds.10 mph100%29.59 "Hg5 mi
10:50 AM39 °FLight rain. Low clouds.10 mph100%29.59 "Hg6 mi
10:20 AM39 °FLight rain. Low clouds.10 mph100%29.59 "HgN/A
9:50 AM39 °FLight rain. Low clouds.10 mph93%29.62 "HgN/A
9:20 AM39 °FLight rain. Low clouds.10 mph93%29.62 "HgN/A
8:50 AM39 °FLight rain. Overcast.12 mph93%29.62 "HgN/A
8:20 AM39 °FLight rain. Overcast.13 mph93%29.62 "HgN/A
7:50 AM41 °FDrizzle. Overcast.13 mph81%29.65 "HgN/A
7:20 AM41 °FDrizzle. Overcast.13 mph81%29.65 "HgN/A
6:50 AM41 °FDrizzle. Overcast.12 mph81%29.65 "HgN/A
6:20 AM41 °FDrizzle. Overcast.13 mph81%29.65 "HgN/A
5:50 AM41 °FSprinkles. Overcast.15 mph81%29.65 "HgN/A
5:20 AM41 °FSprinkles. Mostly cloudy.14 mph81%29.68 "HgN/A
4:50 AM43 °FSprinkles. Overcast.16 mph66%29.68 "HgN/A
4:20 AM45 °FOvercast.15 mph57%29.68 "HgN/A
3:50 AM45 °FSprinkles. Overcast.14 mph57%29.68 "HgN/A
3:20 AM45 °FLight rain. Overcast.14 mph57%29.71 "HgN/A
2:50 AM45 °FClear.13 mph53%29.71 "Hg10 mi
2:20 AM45 °FClear.14 mph53%29.74 "Hg10 mi
1:50 AM45 °FPassing clouds.12 mph53%29.74 "HgN/A
1:20 AM43 °FDrizzle. Overcast.12 mph57%29.74 "HgN/A
12:20 AM45 °FPassing clouds.7 mph53%29.77 "HgN/A
11:50 PM
Sat, Apr 25
43 °FClear.6 mph57%29.77 "Hg10 mi
11:20 PM43 °FDrizzle. Overcast.7 mph61%29.77 "HgN/A
10:50 PM43 °FPassing clouds.8 mph57%29.80 "HgN/A
10:20 PM43 °FPassing clouds.7 mph57%29.80 "HgN/A
9:50 PM43 °FPassing clouds.9 mph53%29.80 "HgN/A
9:20 PM43 °FPassing clouds.7 mph57%29.83 "HgN/A
8:50 PM43 °FPassing clouds.8 mph57%29.80 "HgN/A
8:20 PM43 °FPassing clouds.6 mph57%29.80 "HgN/A
7:50 PM45 °FPassing clouds.6 mph49%29.80 "HgN/A
7:20 PM46 °FSunny.8 mph40%29.80 "Hg10 mi
6:50 PM48 °FSunny.8 mph32%29.80 "Hg10 mi
6:20 PM50 °FPassing clouds.6 mph32%29.80 "HgN/A
5:50 PM48 °FPassing clouds.7 mph34%29.83 "HgN/A
5:20 PM48 °FSunny.8 mph32%29.83 "Hg10 mi
4:50 PM50 °FPassing clouds.9 mph32%29.83 "HgN/A
4:20 PM50 °FPassing clouds.8 mph32%29.83 "HgN/A
3:50 PM48 °FPassing clouds.10 mph32%29.83 "HgN/A
3:20 PM50 °FPassing clouds.10 mph32%29.83 "HgN/A
Weather by CustomWeather, © 2015

See weather overviewHow to use our weather pages